Tracking 29091 objects as of 17-Jul-2024
HD Live streaming from Space Station
objects crossing your sky now

USA 28

Track USA 28 now!
USA 28 is classified as:


NORAD ID: 18583
Int'l Code: 1987-097A
Perigee: 36,228.7 km
Apogee: 36,432.5 km
Inclination: 12.7 °
Period: 1,463.6 minutes
Semi major axis: 42701 km
RCS: Unknown
Launch date: November 29, 1987
Source: United States (US)
Launch site: AIR FORCE EASTERN TEST RANGE (AFETR)
Your satellite tracking list
Your tracking list is empty




NASA's NSSDC Master Catalog

Two Line Element Set (TLE):
1 18583U 87097A   24198.48536147 -.00000006  00000-0  00000-0 0  9995
2 18583  12.6965 342.4035 0023867 254.8779 104.4626  0.98386763 17826
Source of the keplerian elements: McCants